Location: Austin
(30.3000°N, 97.7500°W)
Time: 04:04:31
(UTC-06:00)

Lacrosse 5 rocket - Pass Details

Date: 20 November 2023
Orbit: 452 x 591 km, 57.0° (Epoch: 04 December)

Event Time Altitude Azimuth Distance (km) Brightness Sun altitude
Rises 19:13:45 0° 310° (NW) 2,747 5.4 -21.8°
Reaches altitude 10° 19:16:15 10° 298° (WNW) 1,824 4.6 -22.3°
Maximum altitude 19:19:46 27° 240° (WSW) 1,038 3.3 -23.1°
Drops below altitude 10° 19:23:08 10° 181° (S) 1,742 4.0 -23.8°
Enters shadow 19:24:50 - 171° (S) 2,348 4.6 -24.1°
